Lapse_Rate
4.7 4.8 4.8 4.9 5.0 5.1 5.2 5.4 5.6 5.7 5.8 5.7 5.5 5.6 5.7 5.7 5.9 6.0 5.7 5.9 6.2 6.7 6.8 6.9 6.6 6.3 6.0 5.6 5.4 5.5 5.2 5.2 5.2 5.4 5.4 5.6 5.3 5.8 5.6 5.8 5.7 5.6 6.1 6.3 6.5
4.4 4.5 4.6 4.7 4.7 4.8 4.9 5.0 5.3 5.6 5.8 5.8 5.8 5.7 5.8 5.9 5.8 5.7 6.2 6.2 6.4 6.6 6.9 6.8 6.6 6.3 6.1 5.8 5.2 5.3 5.1 5.0 5.2 5.3 5.5 5.6 5.5 5.7 5.8 6.1 5.8 5.9 6.0 6.0 6.2
4.2 4.4 4.4 4.6 4.8 4.8 5.0 4.9 5.1 5.4 5.7 5.7 5.8 5.9 5.8 5.9 5.8 5.7 6.0 6.3 6.4 6.5 6.7 6.5 6.4 6.4 5.9 5.4 5.2 5.4 5.2 4.9 5.2 5.4 5.7 5.4 5.7 5.4 5.0 5.8 5.7 6.2 6.3 6.2 5.9
4.1 4.1 4.3 4.5 4.8 4.9 4.9 5.0 5.0 5.3 5.6 5.8 5.6 6.0 6.0 5.9 5.6 5.9 6.0 6.3 6.4 6.6 6.8 6.8 6.7 6.5 5.8 5.4 5.5 5.2 5.1 5.0 5.2 5.2 5.3 5.2 5.4 5.3 4.9 5.0 5.7 5.5 6.0 6.5 5.7
4.2 4.2 4.2 4.5 4.7 5.1 5.2 5.1 5.2 5.3 5.6 5.8 5.9 5.6 6.1 6.0 6.0 6.2 6.1 6.2 6.3 6.8 7.0 7.0 6.7 6.0 5.9 5.6 5.5 5.5 5.3 5.4 5.9 5.3 4.6 4.9 5.0 5.2 5.5 5.4 5.7 5.4 5.3 6.1 5.8
4.2 4.3 4.4 4.6 4.8 5.2 5.3 5.5 5.4 5.6 5.8 6.1 6.0 5.8 5.8 5.9 6.2 6.4 6.2 6.2 6.3 6.5 6.9 6.9 6.7 5.9 5.9 5.6 5.7 5.5 5.1 5.0 5.1 4.7 4.7 5.1 5.2 5.6 5.4 5.3 5.6 5.3 5.4 5.7 5.5
4.3 4.4 4.6 5.0 5.2 5.3 5.6 5.6 5.6 5.6 5.7 5.9 6.0 5.9 5.7 5.7 6.1 6.3 6.4 6.2 6.1 6.1 6.5 6.7 6.6 6.2 5.8 5.7 5.7 5.4 5.3 5.1 5.2 5.2 4.9 4.9 4.8 5.1 5.3 5.2 5.2 5.2 5.3 5.2 5.2
4.2 4.4 4.7 5.2 5.5 5.6 5.7 5.8 5.8 5.6 5.6 5.6 5.8 5.8 5.7 6.1 6.1 6.2 6.4 6.3 6.2 6.1 6.1 6.5 6.5 6.1 5.9 5.8 6.1 5.9 5.6 5.9 5.5 5.0 4.9 4.9 5.1 5.3 5.1 4.9 4.3 4.4 4.7 5.1 5.0
4.1 4.5 5.0 5.4 5.7 5.8 5.8 5.8 5.8 5.6 5.5 5.6 5.6 5.7 5.4 6.0 6.2 6.2 6.1 6.2 6.2 6.1 6.2 6.3 6.4 6.2 5.8 6.1 6.7 6.6 7.3 6.2 5.7 5.5 5.7 5.0 5.3 5.3 5.2 4.5 4.5 4.3 4.6 4.7 4.7
4.4 4.7 5.2 5.6 5.9 6.0 5.7 5.7 5.8 5.6 5.6 5.6 5.7 5.7 5.5 5.4 6.1 6.1 6.0 6.2 6.3 6.3 6.4 6.3 6.0 6.2 6.3 6.6 7.5 7.8 7.7 6.7 6.2 5.7 5.4 5.3 5.6 5.2 4.9 4.9 4.7 4.5 4.6 4.6 4.5
4.6 4.9 5.3 5.7 6.1 6.2 5.9 5.7 5.5 5.7 5.8 5.8 5.6 5.6 5.6 5.9 6.0 6.0 6.0 6.1 6.0 6.2 6.0 6.2 6.1 6.6 6.9 6.9 6.7 7.4 7.8 7.1 6.5 5.7 5.4 5.4 5.5 5.5 5.0 5.2 4.7 4.7 4.8 4.9 4.7
4.9 5.3 5.6 5.9 6.3 6.1 5.8 5.7 5.7 5.8 5.9 6.1 6.1 6.0 6.0 6.1 5.9 6.0 6.1 5.8 5.7 6.0 6.1 6.1 6.4 6.9 7.0 6.7 6.9 7.3 7.8 7.2 6.0 6.5 6.3 5.8 5.2 5.3 5.1 5.0 5.1 4.9 5.0 5.0 4.8
5.1 5.7 6.0 6.2 6.3 6.1 5.9 6.0 6.3 6.4 6.4 6.5 6.5 6.3 6.1 6.1 6.0 6.4 6.5 6.0 6.1 6.3 6.3 7.2 7.2 6.7 6.4 6.7 7.2 7.6 8.0 7.5 7.4 6.1 6.1 5.6 5.7 5.5 5.1 4.8 5.1 4.9 5.0 5.0 5.0
5.4 6.0 6.3 6.5 6.4 6.1 6.1 6.3 6.6 6.8 7.3 7.1 6.9 6.6 6.3 6.3 6.2 6.2 6.2 6.5 6.4 6.6 6.6 7.2 6.7 6.5 6.5 6.9 7.6 8.3 7.4 7.4 7.0 6.8 6.8 6.3 5.6 5.2 5.2 5.1 5.2 5.2 4.9 5.0 5.3
5.8 6.2 6.6 6.7 6.4 6.2 6.2 6.5 6.9 7.1 9.5 7.5 7.3 7.1 6.9 6.6 6.6 6.6 6.4 6.4 6.9 7.1 6.8 7.2 6.7 6.7 6.8 7.0 7.3 8.0 7.4 7.6 7.4 7.5 6.8 6.5 6.4 5.9 5.7 5.6 5.6 5.3 5.0 5.4 5.5
5.9 6.3 6.7 6.6 6.4 6.4 6.6 7.0 7.3 7.5 8.4 7.9 7.6 7.5 7.5 7.2 7.1 6.8 6.6 6.5 6.7 7.0 7.2 7.3 7.1 7.1 7.3 7.1 6.9 7.1 7.5 7.5 7.3 7.7 7.9 7.7 7.7 6.4 5.9 6.8 6.7 6.5 5.4 5.4 5.5
6.1 6.2 6.5 6.5 6.5 6.7 7.0 7.4 7.9 8.6 7.7 7.9 8.0 8.1 8.1 8.1 7.7 7.1 7.0 7.0 7.4 7.2 7.5 7.1 7.2 7.2 7.2 7.1 7.0 7.1 7.7 8.1 8.4 8.3 9.4 7.5 7.5 8.3 7.2 7.6 7.2 7.3 6.6 5.8 5.5
6.2 6.3 6.4 6.5 6.6 6.8 7.2 7.5 8.2 7.7 7.8 7.6 7.9 8.2 8.7 8.5 8.9 8.0 7.6 7.7 7.4 7.9 8.8 7.8 7.7 7.5 7.1 7.5 7.4 7.2 7.8 8.6 8.5 9.5 9.7 7.4 8.0 7.7 7.2 6.9 7.3 7.1 6.8 5.9 5.6
6.2 6.5 6.5 6.7 6.8 6.9 7.1 8.0 7.9 7.7 7.5 7.7 8.0 8.5 8.8 8.4 9.0 8.6 8.4 8.7 8.1 8.0 8.7 8.4 8.7 7.9 7.6 7.5 7.6 7.7 7.9 8.5 8.9 9.4 9.5 9.0 8.0 7.5 7.5 7.4 7.2 6.4 6.2 5.8 5.5
6.3 6.6 6.5 6.7 6.7 6.8 7.1 7.3 7.4 7.3 7.4 7.7 8.3 8.1 9.0 9.2 8.9 9.4 9.2 9.1 9.1 8.1 8.0 8.4 8.8 7.9 7.9 7.8 7.6 8.3 7.9 8.5 8.6 9.6 9.4 9.3 8.8 9.0 7.4 7.2 7.2 5.8 6.1 6.0 5.8
6.5 6.7 6.6 6.7 6.8 7.0 7.2 7.1 7.2 7.2 7.3 7.6 8.0 8.4 8.5 8.7 9.1 9.1 8.8 8.7 8.3 8.2 7.9 8.3 8.5 8.8 8.3 7.7 8.0 7.6 7.8 8.3 9.4 9.3 9.8 9.7 9.4 8.0 7.5 7.6 6.8 6.4 6.7 6.8 6.8
6.6 7.1 6.8 6.8 7.0 6.9 7.2 6.9 6.9 7.1 7.1 7.4 7.6 7.9 8.1 8.3 8.9 9.2 8.6 8.7 8.3 8.2 8.3 8.2 8.8 9.4 8.4 8.4 8.4 8.2 8.4 8.2 8.9 9.4 8.9 8.9 8.2 8.6 7.6 7.9 7.7 7.1 7.3 7.0 6.7
6.7 6.9 7.0 7.0 7.5 7.3 6.9 7.0 6.8 7.1 7.0 7.2 7.7 7.6 7.8 8.0 8.2 8.1 7.8 8.0 8.5 8.4 8.4 8.4 8.7 9.5 9.4 8.5 8.2 8.3 8.5 9.3 9.3 9.4 9.5 9.7 9.3 8.8 8.1 8.0 7.9 7.7 7.4 7.1 7.1
7.0 7.2 7.0 7.1 7.1 7.2 7.2 7.1 7.2 6.8 7.0 7.0 7.3 7.5 7.8 7.7 7.9 8.0 7.9 8.1 8.3 8.0 8.3 8.5 8.9 8.9 9.2 9.5 9.1 8.6 8.4 8.3 9.5 9.5 9.5 9.4 8.8 8.8 8.4 8.2 8.2 8.0 7.4 7.2 7.1
7.1 7.1 7.3 7.5 7.2 7.1 7.1 6.9 7.1 7.0 6.9 7.0 7.2 7.5 7.7 8.1 8.1 7.8 7.4 7.7 7.9 8.0 8.1 8.0 8.5 8.8 8.6 8.7 9.0 9.3 8.8 8.6 8.8 9.5 9.5 9.5 9.4 8.8 8.1 8.0 8.4 7.9 7.6 7.4 7.2
6.9 7.0 7.2 7.2 7.1 7.0 7.0 6.8 6.9 6.8 6.9 7.1 7.2 7.3 7.6 7.7 7.9 8.0 8.2 7.6 7.7 7.8 8.1 8.0 8.3 8.6 8.7 8.4 8.8 8.8 8.8 9.3 9.0 9.1 9.4 9.2 8.6 8.4 8.4 8.5 8.1 8.1 7.8 7.6 7.4
7.0 7.0 7.1 7.1 7.0 7.2 7.1 6.8 6.7 6.7 6.7 7.0 7.1 7.2 7.4 7.6 8.0 8.0 7.8 8.0 7.9 7.6 7.8 7.4 7.9 8.5 9.0 8.6 8.7 8.8 8.0 8.4 8.2 8.1 9.0 9.5 8.7 8.6 8.6 8.3 8.3 8.1 7.9 7.6 7.4
Wind_Speed
10 10 10 10 10 9 9 9 9 9 9 9 8 8 10 12 17 9 10 1 5 11 9 11 10 10 9 7 4 2 4 2 2 12 6 4 6 4 1 12 5 4 13 24 19
11 10 10 10 10 10 9 9 8 9 9 10 10 9 9 10 11 13 4 5 5 16 16 17 14 13 8 7 5 5 2 3 5 6 11 8 6 10 9 10 11 17 23 23 21
11 10 10 10 11 10 10 9 9 8 9 9 10 10 10 12 7 2 5 15 14 17 16 14 11 13 8 6 6 3 3 3 1 8 13 8 7 5 10 10 15 23 26 23 21
10 10 11 11 10 10 10 10 9 8 8 9 10 10 12 6 1 6 6 17 17 19 14 12 14 12 9 8 8 6 3 10 7 14 10 6 5 9 3 5 15 21 25 23 21
11 10 9 10 10 10 10 9 8 8 8 8 9 10 8 7 5 4 8 14 17 18 19 16 14 11 9 7 8 4 3 10 12 18 13 8 9 3 6 11 20 23 22 22 19
11 10 10 10 10 9 9 8 9 7 7 7 8 10 8 9 3 7 7 16 16 17 18 15 11 9 6 7 9 4 7 16 16 12 5 7 3 4 9 19 23 22 20 19 18
11 10 9 8 8 8 7 7 7 5 5 6 6 7 8 4 4 4 12 14 16 12 15 13 7 10 3 8 4 9 8 12 18 11 5 9 2 7 12 20 22 21 19 17 16
12 10 9 8 8 8 9 9 8 6 4 4 5 6 4 2 3 5 8 11 13 6 9 8 4 8 9 4 7 11 9 7 14 13 9 9 11 6 13 19 21 19 18 16 15
12 11 9 8 8 9 9 10 7 5 4 5 6 5 4 5 6 9 9 13 16 9 6 6 7 9 7 11 10 10 8 11 11 18 13 14 11 6 5 14 19 18 18 15 14
11 11 10 10 8 9 11 6 7 9 6 5 4 5 4 6 8 11 5 13 14 12 8 9 9 10 10 10 12 12 9 14 13 11 17 15 10 14 10 15 19 19 18 16 15
12 11 10 9 8 7 7 4 5 5 7 6 4 5 4 8 11 9 12 10 11 13 10 12 11 17 18 14 8 7 7 10 12 12 14 10 10 16 17 14 20 19 18 17 16
12 10 10 9 7 5 6 5 5 5 6 4 5 6 5 3 10 12 13 9 12 14 11 9 15 15 12 8 8 9 10 13 12 16 8 11 9 16 17 18 22 21 19 17 17
12 11 9 7 4 4 6 6 1 5 5 5 2 2 6 9 9 16 15 7 12 14 16 13 9 9 12 12 10 7 9 13 13 13 9 12 6 10 15 19 21 21 20 19 16
13 11 8 5 4 1 3 1 3 5 4 6 5 5 7 6 7 15 17 7 7 13 14 11 6 14 15 15 12 11 1 6 13 15 6 16 3 8 18 18 16 21 20 20 19
14 12 8 7 5 3 3 3 3 4 1 4 6 3 2 6 14 13 16 7 10 10 10 8 11 18 17 14 10 5 6 8 12 4 10 10 3 7 20 17 16 17 22 21 21
15 12 7 5 4 4 4 3 4 7 5 3 1 1 7 9 7 15 15 11 2 8 14 1 12 13 12 10 10 2 9 6 4 3 7 11 9 12 17 26 26 22 19 21 20
17 14 6 3 2 1 5 4 6 5 2 4 4 2 4 8 9 15 17 15 9 10 14 8 13 9 9 14 12 13 14 7 8 7 4 4 8 4 19 14 23 26 25 22 21
21 4 10 5 4 4 5 7 4 3 5 3 3 4 5 4 9 13 15 13 6 11 11 13 14 16 11 14 13 18 18 8 10 10 9 6 6 3 6 12 14 20 19 21 21
21 3 3 2 2 4 7 2 4 4 4 8 5 5 6 7 3 9 12 12 11 9 8 12 11 18 11 14 10 16 19 17 15 6 10 10 6 6 7 11 14 20 24 18 19
2 3 3 2 2 6 3 5 3 4 5 4 6 3 5 7 8 9 10 5 7 6 9 3 10 12 16 15 16 14 14 13 9 10 12 8 10 6 10 11 16 19 24 19 14
4 4 4 2 4 4 4 7 3 4 5 5 6 4 2 3 9 6 3 4 4 11 7 9 9 12 14 15 17 11 13 14 14 14 8 10 8 7 9 8 16 19 20 22 25
4 2 3 4 3 1 5 4 2 4 2 2 4 5 4 4 1 4 5 7 5 8 10 10 8 8 18 13 13 21 17 17 11 12 12 9 5 5 5 9 9 13 13 17 17
1 3 2 4 2 3 4 3 4 7 8 5 4 5 3 1 1 2 2 4 8 5 3 5 9 9 8 9 9 14 16 18 20 17 16 11 3 6 7 8 10 10 11 10 11
3 4 3 2 1 4 1 2 1 4 4 3 6 2 3 4 3 4 2 4 5 4 2 3 4 11 4 14 16 17 12 16 13 13 14 12 6 8 10 10 9 10 12 13 15
1 3 3 2 3 2 1 2 4 4 2 5 2 6 3 1 9 11 8 10 4 2 2 3 2 5 5 6 4 8 15 15 15 18 12 8 12 9 10 11 12 10 9 12 12
2 2 3 3 3 4 2 3 4 4 6 4 4 6 6 7 7 2 3 3 4 6 1 5 2 3 6 4 5 9 5 6 5 6 7 8 6 5 9 9 10 10 10 9 13
2 1 4 4 3 4 3 1 2 0 3 5 5 4 3 7 5 3 2 2 3 5 4 2 5 5 8 1 7 10 6 4 3 1 6 10 8 9 10 9 10 10 10 9 9
Wind_Direction
339 334 330 324 320 317 315 316 318 320 321 324 326 327 323 318 300 232 246 159 167 170 220 161 178 176 185 198 212 230 234 258 166 168 140 142 128 119 165 151 152 122 146 138 152
337 334 330 324 319 317 315 314 315 315 317 319 320 320 319 317 284 253 215 142 164 174 183 180 172 176 193 208 205 241 286 6 342 145 143 142 104 129 142 134 133 119 119 142 147
333 333 329 326 320 315 311 311 312 312 315 314 314 313 308 301 270 146 137 197 188 195 186 194 175 192 198 201 191 148 9 80 314 161 134 130 120 148 161 153 154 145 143 149 152
335 334 331 326 322 319 315 310 309 308 310 310 311 308 299 254 214 81 28 163 174 191 183 181 185 197 208 199 172 160 71 39 109 134 120 159 127 90 255 90 152 153 148 152 158
343 337 332 329 324 321 317 312 307 307 302 303 302 303 276 220 252 44 108 152 169 187 186 186 192 209 204 196 171 237 142 73 149 145 146 165 92 69 108 135 141 147 152 153 160
343 342 340 338 335 328 321 315 312 307 302 294 293 292 252 240 37 345 169 166 170 190 188 192 205 212 218 202 216 148 145 119 147 134 123 124 86 348 122 140 141 153 157 157 158
346 344 339 338 332 323 314 310 297 292 292 285 277 265 250 282 5 54 152 172 167 192 176 188 222 212 201 180 149 144 152 129 149 149 123 134 152 87 145 149 151 159 159 157 160
347 344 339 334 327 322 314 307 294 266 242 250 252 251 264 112 15 155 156 157 168 148 203 175 205 229 251 77 186 183 172 181 153 153 163 206 166 120 164 159 160 161 159 157 161
345 342 335 327 327 323 312 299 263 234 216 191 220 252 124 139 191 139 155 161 168 156 136 190 224 220 192 211 191 197 184 151 138 186 158 200 138 174 160 185 167 169 165 164 166
340 338 340 331 319 322 317 278 156 169 198 203 257 241 197 100 131 144 149 158 164 154 148 187 208 205 211 211 202 188 213 165 151 161 167 195 143 165 193 218 171 174 166 169 171
337 340 332 324 323 323 286 194 214 180 203 299 349 308 104 96 145 164 150 157 175 185 185 191 208 206 193 213 359 298 231 153 139 153 150 131 138 173 180 208 185 180 169 175 176
339 336 332 320 312 311 267 273 27 354 306 199 258 254 250 305 151 157 172 160 181 190 182 175 219 204 201 199 240 223 216 115 125 151 157 175 175 169 171 192 197 186 180 187 182
336 335 332 317 305 228 259 275 8 315 265 121 155 170 152 199 171 170 197 161 190 198 203 208 191 176 206 199 207 217 207 159 153 167 182 176 137 163 175 199 200 190 193 195 187
331 330 329 319 239 146 235 130 252 287 221 91 146 122 152 216 162 160 199 187 188 204 211 235 132 183 207 206 216 174 234 150 148 178 180 203 122 187 172 183 193 190 193 194 188
326 327 319 259 331 247 50 296 299 220 301 42 82 98 178 233 129 178 196 208 197 190 198 186 187 192 200 209 209 75 171 173 178 222 147 183 150 159 166 187 190 206 196 195 192
327 324 310 198 226 286 289 303 227 231 80 84 75 330 193 202 169 147 186 238 334 203 217 360 210 199 193 180 204 191 169 168 172 254 230 171 256 163 182 198 195 190 202 202 199
326 306 239 275 31 325 286 236 236 36 171 33 360 317 288 167 158 174 187 193 194 196 189 179 191 189 213 198 197 208 180 176 199 202 250 136 212 67 194 178 192 189 192 203 197
328 295 189 269 280 279 244 248 49 35 29 7 320 270 247 190 154 182 187 197 212 245 183 198 181 197 196 216 188 211 211 213 206 210 211 130 220 150 183 194 190 198 182 203 194
318 184 189 75 209 218 251 343 26 27 4 343 261 276 165 188 261 176 196 208 192 226 245 205 223 180 202 215 216 193 225 237 274 254 258 162 179 150 186 206 199 180 170 205 204
257 212 68 145 260 248 259 75 80 8 334 302 352 343 294 184 215 212 168 220 218 202 271 182 221 194 200 214 214 236 198 211 241 217 231 163 224 107 181 176 177 174 180 176 202
225 201 95 300 266 247 61 63 25 57 347 325 357 330 338 268 266 169 105 98 224 185 244 242 260 164 187 204 196 195 224 221 245 238 257 229 195 72 137 182 173 176 179 180 196
282 182 105 288 219 2 66 16 290 19 55 326 295 14 354 327 248 177 320 9 348 256 213 221 244 194 199 199 242 203 214 203 228 191 256 309 82 108 141 152 182 160 178 184 185
292 80 132 278 297 123 133 121 3 12 32 5 9 10 3 100 101 26 127 13 352 219 286 195 235 209 169 187 206 229 213 231 216 244 220 237 186 129 139 146 141 152 157 153 162
261 185 142 109 22 312 287 54 22 61 45 8 1 230 201 173 165 217 313 19 7 58 10 233 273 272 259 193 187 203 208 223 240 228 235 210 148 165 161 156 138 154 163 159 166
297 74 8 145 108 104 286 327 339 357 0 13 84 25 351 106 155 152 227 305 145 117 64 317 258 247 77 81 159 201 201 200 225 242 264 233 214 150 172 158 167 156 166 160 163
289 216 163 105 150 241 149 40 44 75 359 40 29 33 45 72 18 79 334 348 356 316 284 8 130 226 116 109 142 133 161 199 224 246 259 268 106 121 130 137 151 149 157 159 162
85 169 283 157 186 271 43 114 71 288 75 38 341 287 99 41 356 17 173 110 109 269 318 148 333 249 138 142 177 145 41 56 146 172 320 225 56 149 135 152 121 125 124 132 124